Regional Weather Roundup
Issued by NWS Wilmington, NC

Home | Current Version | Previous Version | Text Only | Print | Product List | Glossary On
Versions: 1 2 3 4 5 6 7 8 9 10 11 12 13 14 15 16 17 18 19 20 21 22 23 24 25 26 27 28 29 30 31 32 33 34 35 36 37 38 39 40 41 42 43 44 45 46 47 48 49 50
000
ASUS42 KILM 260413
RWRILM
RWRILM
REGIONAL HOURLY WEATHER ROUNDUP
NATIONAL WEATHER SERVICE WILMINGTON NC
1200 AM EDT TUE MAY 26 2015

NOTE: "FAIR" INDICATES FEW OR NO CLOUDS BELOW 12,000 FEET WITH NO
SIGNIFICANT WEATHER AND/OR OBSTRUCTIONS TO VISIBILITY.

...............WFO WILMINGTON COUNTY WARNING AREA...............

......COASTAL NC AND SC COUNTIES......

CITY           SKY/WX    TMP DP  RH WIND       PRES   REMARKS
WILMINGTON     CLEAR     66  63  90 CALM      30.30F
N MYRTLE BEACH CLEAR     75  67  76 SE7       30.29S
MYRTLE BEACH   CLEAR     73  66  78 SE12      30.30F

......INLAND NC AND SC COUNTIES.......

CITY           SKY/WX    TMP DP  RH WIND       PRES   REMARKS
LUMBERTON      CLEAR     68  63  84 SE3       30.28S
ELIZABETHTOWN  CLEAR     67  63  86 SE3       30.29F
WHITEVILLE     CLEAR     68  64  86 CALM      30.29S
FLORENCE       CLEAR     68  64  87 S5        30.27F
DARLINGTON     CLEAR     70  63  78 S6        30.29S

....................REST OF NORTH CAROLINA......................

.........EASTERN NC.........

CITY           SKY/WX    TMP DP  RH WIND       PRES   REMARKS
CAPE HATTERAS  CLEAR     72  62  71 S13       30.33S
JACKSONVILLE   CLEAR     63  55  77 CALM      30.31F
MOREHEAD CITY  CLEAR     71  63  75 S6        30.32S
KENANSVILLE    CLEAR     62  59  91 CALM      30.31F
NEW BERN       CLEAR     64  59  83 S3        30.32F
ELIZABETH CITY CLEAR     69  62  78 S8        30.31S

.........CENTRAL NC.........

CITY           SKY/WX    TMP DP  RH WIND       PRES   REMARKS
RALEIGH DURHAM PTCLDY    71  60  68 S8        30.28S
ROCKY MOUNT    CLEAR     69  61  75 S6        30.30S
ROANOKE RAPIDS NOT AVBL
FAYETTEVILLE   CLEAR     69  62  78 SE5       30.28S
HOFFMAN        CLEAR     70  63  79 S8        30.31F

.........WESTERN NC.........

CITY           SKY/WX    TMP DP  RH WIND       PRES   REMARKS
CHARLOTTE      MOCLDY    73  61  65 S12       30.26S
GREENSBORO     PTCLDY    70  59  68 S8        30.26S
HICKORY        NOT AVBL
BOONE          NOT AVBL
ASHEVILLE      NOT AVBL

.....................REST OF SOUTH CAROLINA.....................

.........EASTERN SC.........

CITY           SKY/WX    TMP DP  RH WIND       PRES   REMARKS
CHARLESTON     PTCLDY    72  68  87 E7        30.26F
BEAUFORT MCAS  PTCLDY    74  70  87 SE7       30.25F
HILTON HEAD    PTCLDY    75  72  88 E7        30.26F

.........CENTRAL SC.........

CITY           SKY/WX    TMP DP  RH WIND       PRES   REMARKS
COLUMBIA       MOCLDY    73  65  75 SE7       30.26R
ORANGEBURG     MOCLDY    71  66  84 SE3       30.27S
SUMTER SHAW    PTCLDY    71  66  83 SE5       30.25F

.........WESTERN SC.........

CITY           SKY/WX    TMP DP  RH WIND       PRES   REMARKS
GREENVILLE     NOT AVBL
ROCK HILL      PTCLDY    72  63  73 S6        30.27R
ANDERSON       CLOUDY    74  66  76 S3        30.24S
CLEMSON        NOT AVBL
GREENWOOD      MOCLDY    72  68  87 SE6       30.26S


...................COASTAL AND OFFSHORE REPORTS..................

................LOCAL PIERS AND NC RESERVE................


STATION/POSITION TIME  SKY/WX   TEMP    WIND        PRES    VSBY
                                AIR SEA DIR/SP/G
                 (UTC)          (F)     (DEG/KT/KT) (MB)    (MI)
JOHNY MRCER PIER 0300            75 77  160/ 11/ 13 1025.8R
NC RESRV MASNBRO NOT AVBL
OCEAN CREST PIER 0402            74 77  100/ 14/ 15 1025.2F
SPRINGMAID  PIER 0300            74 77  100/ 10/ 11 1025.9R


................COASTAL AND OFFSHORE BUOYS................


STATION/POSITION TIME  SKY/WX   TEMP    WIND        PRES    VSBY
                                AIR SEA DIR/SP/G
                 (UTC)          (F)     (DEG/KT/KT) (MB)    (MI)
DIMNDSHOAL 41025 0350            74 76  170/ 14/ 16 1027.0F
WVE H/P(F/S)=  3/ 6 WND WVE H/P(F/S)=  2/ 6 SWL H/P/D(F/S/D)=  2/ 90/ 8

CAPE LOOKOUT     0400            74     150/ 10/ 11 1026.5F
ONSLOW BAY 41036 NOT AVBL
5 WRITEBCH 41038 0308            75 77  180/ 10/ 14 1026.2R
MASONBORO  41110 0319               77                N/A
WVE H/P(F/S)=  3/ 5 WND WVE H/P(F/S)=  2/ 5

WILM HARBR 41108 0311               76                N/A
WVE H/P(F/S)=  2/ 6 WND WVE H/P(F/S)=  2/ 6

27WRITEBCH 41037 0300            72 76  160/ 12/ 14   N/A
FRYING PAN 41013 0350            76 74  120/ 10/ 12 1026.7F
WVE H/P(F/S)=  3/ 6 WND WVE H/P(F/S)=  2/ 4 SWL H/P/D(F/S/D)=  3/120/ 6

SUNST NRSH 41024 NOT AVBL
CAPRS NRSH 41029 0308            75     120/ 12/ 16 1025.1R
EDISTO     41004 0350            75 75   90/ 12/ 12 1024.3F
WVE H/P(F/S)=  4/ 6 WND WVE H/P(F/S)=  2/ 5 SWL H/P/D(F/S/D)=  3/ 6



..........OFFSHORE BUOYS BEYOND 100 NM OFFSHORE...........
.....IN A TRIANGLE---HAT TO BERMUDA TO BAHAMAS TO HAT.....


STATION/POSITION TIME  SKY/WX   TEMP    WIND        PRES    VSBY
                                AIR SEA DIR/SP/G
                 (UTC)          (F)     (DEG/KT/KT) (MB)    (MI)
150E HAT   41001 NOT AVBL
W BERMUDA  41048 0350            72 74   70/ 16/ 17 1027.3F
WVE H/P(F/S)=  4/ 6 WND WVE H/P(F/S)=  3/ 6 SWL H/P/D(F/S/D)=  2/100/ 7

ATLANTIC S 41049 0350            74 78   40/ 16/ 17 1021.1F
WVE H/P(F/S)=  5/ 7 WND WVE H/P(F/S)=  5/ 7 SWL H/P/D(F/S/D)=  2/ 50/ 8

E BAHAMAS  41046 0350            79 81   70/ 14/ 16 1020.0F
WVE H/P(F/S)=  4/ 7 WND WVE H/P(F/S)=  3/ 6 SWL H/P/D(F/S/D)=  3/ 10/ 7

NE BAHAMAS 41047 0350            77 78   80/ 19/ 21 1022.3S
WVE H/P(F/S)=  6/ 6 WND WVE H/P(F/S)=  5/ 6

120E CANVRL41010 0320            79 81  120/ 12/ 14 1024.1S

END


USA.gov is the U.S. government's official web portal to all federal, state and local government web resources and services.